カタリナ彗星

C/2018 W1 ( Catalina )

English version
Home page
Updated on September 24, 2019

---------------------------------------------------------------------

・ プロフィール

発見日 2018年11月16日
発見光度 19.8等
発見者 Catalina Sky Survey

・ 写真集

・ 軌道要素

Epoch 2019 Apr. 27.0 TT = JDT 2458600.5
T 2019 May 11.85376 TT                                  Williams
q   1.3601895            (2000.0)            P               Q
n   0.00968214     Peri.  251.24780     +0.10162352     -0.59234191
a  21.8016059      Node   233.58934     +0.67179990     -0.55169190
e   0.9376106      Incl.   83.27850     -0.73372853     -0.58716872
P 102
From 260 observations 2018 Nov. 16-2019 July 25, mean residual 0".4.

・ 星図

・ 光度変化

        m1 = 13.5 + 5 logΔ + 10.0 log r  [   ,-73]  (              〜2019年 2月27日)
        m1 =  2.0 + 5 logΔ + 60   log r  [-73,  0]  (2019年 2月27日〜2019年 5月11日)
        m1 =  6.0 + 5 logΔ + 30   log r  [  0,   ]  (2019年 5月11日〜              )

---------------------------------------------------------------------

軌道要素はM.P.E.C. 2019-Q135に掲載されたものです。
星図はステラナビゲータ Ver.10 (アストロアーツ) で作成したものです。
光度グラフはComet for Windowsで作成したものです。

---------------------------------------------------------------------

Copyright(C) Seiichi Yoshida (comet@aerith.net). All rights reserved.